GW4301 Weather Reports


time (UTC)temp
F
wind
direction
speed
knots
gust
knots
rain 1hr
in
rain 24hr
in
rain mn
in
humidity
%
barometer
mb
20260508023036 59 0 0.0 0.9 0.00 0.00 0.00 10 1018.9
20260508021535 59 0 0.0 0.0 0.00 0.00 0.00 10 1018.8
20260508020038 61 0 0.0 0.0 0.00 0.00 0.00 10 1018.8
20260508014536 62 0 0.0 0.0 0.00 0.00 0.00 11 1018.6
20260508013037 63 0 0.0 2.6 0.00 0.00 0.00 9 1018.6
20260508011540 64 0 0.0 6.1 0.00 0.00 0.00 10 1018.4
20260508010036 64 0 0.0 2.6 0.00 0.00 0.00 10 1018.5
20260508004538 65 0 0.0 2.6 0.00 0.00 0.00 11 1018.4
20260508003034 67 0 0.0 0.0 0.00 0.00 0.00 10 1018.5
20260508001540 67 0 0.0 0.0 0.00 0.00 0.00 10 1018.6
20260508000040 66 0 0.0 6.1 0.00 0.00 0.00 13 1018.6
20260507234542 68 0 0.0 5.2 0.00 0.00 0.00 14 1018.6
20260507233035 67 0 0.0 0.0 0.00 0.00 0.00 14 1018.6
20260507231543 69 0 0.0 5.2 0.00 0.00 0.00 14 1018.7
20260507230034 70 0 0.0 5.2 0.00 0.00 0.00 14 1018.7
20260507224540 71 0 0.0 5.2 0.00 0.00 0.00 14 1018.8
20260507223035 71 0 0.0 0.0 0.00 0.00 0.00 13 1018.8
20260507221537 72 101 0.0 0.0 0.00 0.00 0.00 13 1019.1
20260507220036 72 0 0.0 5.2 0.00 0.00 0.00 11 1019.2
20260507214536 73 0 0.0 0.0 0.00 0.00 0.00 11 1019.4
20260507213047 70 0 0.0 7.0 0.00 0.00 0.00 12 1019.6
20260507211539 69 0 0.0 5.2 0.00 0.00 0.00 10 1019.9
20260507210038 70 0 0.0 5.2 0.00 0.00 0.00 8 1019.9
20260507204533 68 0 0.0 6.1 0.00 0.00 0.00 9 1020.0
20260507203036 68 0 0.0 7.0 0.00 0.00 0.00 7 1020.3
20260507201541 67 0 0.0 6.1 0.00 0.00 0.00 8 1020.5
20260507200037 67 0 0.0 6.1 0.00 0.00 0.00 7 1020.7
20260507194536 65 0 0.0 5.2 0.00 0.00 0.00 10 1020.9
20260507193042 66 0 0.0 6.1 0.00 0.00 0.00 10 1021.0
20260507191535 66 0 0.0 5.2 0.00 0.00 0.00 12 1021.1
20260507190040 65 0 0.0 2.6 0.00 0.00 0.00 17 1021.3
20260507184535 64 101 0.0 7.0 0.00 0.00 0.00 17 1021.4
20260507183042 62 0 0.0 3.5 0.00 0.00 0.00 19 1021.5
20260507181536 62 101 0.0 2.6 0.00 0.00 0.00 22 1021.8
20260507180044 60 0 0.0 2.6 0.00 0.00 0.00 23 1021.8
20260507174538 59 101 0.0 3.5 0.00 0.00 0.00 27 1022.0
20260507173043 57 0 0.0 5.2 0.00 0.00 0.00 33 1022.1
20260507171545 56 0 0.0 3.5 0.00 0.00 0.00 37 1022.2
20260507170038 53 0 0.0 7.8 0.00 0.00 0.00 40 1022.3
20260507164535 51 0 0.0 5.2 0.00 0.00 0.00 44 1022.4
20260507163043 50 0 0.0 3.5 0.00 0.00 0.00 49 1022.4
20260507161543 48 0 0.0 2.6 0.00 0.00 0.00 53 1022.5
20260507160044 47 0 0.0 2.6 0.00 0.00 0.00 56 1022.8
20260507154537 45 0 0.0 6.1 0.00 0.00 0.00 59 1023.0
20260507153038 44 0 0.0 0.9 0.00 0.00 0.00 60 1023.0
20260507151537 43 0 0.0 0.0 0.00 0.00 0.00 64 1023.1
20260507150035 41 0 0.0 0.0 0.00 0.00 0.00 69 1023.0
20260507144552 39 0 0.0 0.0 0.00 0.00 0.00 71 1023.2
20260507143036 38 0 0.0 0.0 0.00 0.00 0.00 75 1023.4
20260507141543 36 0 0.0 0.0 0.00 0.00 0.00 79 1023.5
20260507140039 34 0 0.0 0.0 0.00 0.00 0.00 88 1023.7
20260507134535 32 0 0.0 0.0 0.00 0.00 0.00 89 1023.6
20260507133037 31 0 0.0 0.0 0.00 0.00 0.00 89 1023.5
20260507131536 31 0 0.0 0.0 0.00 0.00 0.00 88 1023.5
20260507130041 30 0 0.0 0.0 0.00 0.00 0.00 88 1023.6
20260507124538 30 0 0.0 0.0 0.00 0.00 0.00 88 1023.4
20260507123035 30 0 0.0 0.0 0.00 0.00 0.00 87 1023.4
20260507121535 30 0 0.0 0.0 0.00 0.00 0.00 87 1023.5
20260507120034 29 0 0.0 0.0 0.00 0.00 0.00 87 1023.6
20260507114540 29 0 0.0 0.0 0.00 0.00 0.00 86 1023.5
20260507113036 29 0 0.0 0.0 0.00 0.00 0.00 85 1023.5
20260507111542 29 0 0.0 0.0 0.00 0.00 0.00 84 1023.4
20260507110035 29 0 0.0 0.0 0.00 0.00 0.00 84 1023.5
20260507104535 30 0 0.0 0.0 0.00 0.01 0.00 83 1023.5
20260507103041 30 0 0.0 0.0 0.00 0.01 0.00 82 1023.5
20260507101546 31 0 0.0 0.0 0.00 0.01 0.00 79 1023.5
20260507100043 32 0 0.0 0.0 0.00 0.01 0.00 79 1023.6
20260507094543 32 0 0.0 0.0 0.00 0.01 0.00 79 1023.6
20260507093042 32 0 0.0 0.0 0.00 0.01 0.00 77 1023.6
20260507091540 33 0 0.0 0.0 0.00 0.01 0.00 76 1023.6
20260507090038 32 0 0.0 0.0 0.00 0.01 0.00 76 1023.6
20260507084538 31 0 0.0 0.0 0.00 0.01 0.00 74 1023.4
20260507083036 32 0 0.0 0.0 0.00 0.01 0.00 70 1023.4
20260507081535 33 0 0.0 0.0 0.00 0.01 0.00 68 1023.2
20260507080039 34 0 0.0 0.0 0.00 0.01 0.00 65 1023.3
20260507074535 35 0 0.0 0.0 0.00 0.01 0.00 62 1023.3
20260507073035 34 0 0.0 0.0 0.00 0.01 0.00 62 1023.1
20260507071536 34 0 0.0 0.0 0.00 0.01 0.00 64 1022.8
20260507070035 34 0 0.0 0.0 0.00 0.01 0.00 63 1022.9
20260507064534 35 0 0.0 0.0 0.00 0.01 0.00 60 1022.8
20260507063047 36 0 0.0 0.0 0.00 0.01 0.00 57 1022.5
20260507061541 37 0 0.0 0.0 0.00 0.01 0.00 56 1022.4
20260507060047 36 0 0.0 0.0 0.00 0.01 0.00 59 1022.3
20260507054545 37 0 0.0 0.0 0.00 0.02 0.01 60 1022.2
20260507053037 39 0 0.0 0.0 0.00 0.02 0.01 55 1022.1
20260507051536 39 0 0.0 0.0 0.00 0.02 0.01 56 1022.0
20260507050042 39 0 0.0 0.0 0.00 0.02 0.01 58 1022.1
20260507044552 39 0 0.0 0.0 0.00 0.03 0.01 59 1021.9
20260507043036 40 0 0.0 0.0 0.00 0.03 0.01 59 1021.8
20260507041535 40 0 0.0 0.0 0.00 0.03 0.01 57 1021.5
20260507040036 40 0 0.0 0.0 0.00 0.03 0.01 56 1021.3
20260507034544 41 0 0.0 0.0 0.00 0.05 0.01 54 1021.3
20260507033036 41 0 0.0 0.0 0.00 0.05 0.01 55 1021.3
20260507031534 43 0 0.0 0.0 0.00 0.05 0.01 51 1020.8
20260507030035 44 0 0.0 0.0 0.00 0.05 0.01 48 1020.5
20260507024543 45 0 0.0 0.0 0.00 0.09 0.01 46 1020.2